| time (UTC) | temp F | wind direction | speed knots | gust knots | rain 1hr in | rain 24hr in | rain mn in | humidity % | barometer mb |
| 20260506092202 | 66 | 183 | 1.7 | 8.7 | 0.00 | 0.00 | 0.00 | 62 | 1004.9 |
| 20260506091702 | 66 | 172 | 1.7 | 7.0 | 0.00 | 0.00 | 0.00 | 62 | 1004.9 |
| 20260506091202 | 66 | 178 | 1.7 | 6.1 | 0.00 | 0.00 | 0.00 | 62 | 1005.0 |
| 20260506090703 | 66 | 203 | 1.7 | 13.9 | 0.00 | 0.00 | 0.00 | 61 | 1005.1 |
| 20260506090244 | 66 | 223 | 0.9 | 13.0 | 0.00 | 0.00 | 0.00 | 61 | 1005.1 |
| 20260506085702 | 66 | 278 | 0.9 | 3.5 | 0.00 | 0.00 | 0.00 | 61 | 1005.0 |
| 20260506085244 | 66 | 290 | 0.9 | 9.6 | 0.00 | 0.00 | 0.00 | 60 | 1005.0 |
| 20260506084702 | 66 | 185 | 0.9 | 6.1 | 0.00 | 0.00 | 0.00 | 60 | 1005.1 |
| 20260506084202 | 66 | 180 | 0.9 | 4.3 | 0.00 | 0.00 | 0.00 | 60 | 1005.1 |
| 20260506083702 | 66 | 177 | 0.9 | 2.6 | 0.00 | 0.00 | 0.00 | 59 | 1005.1 |
| 20260506083202 | 66 | 153 | 0.9 | 5.2 | 0.00 | 0.00 | 0.00 | 59 | 1005.1 |
| 20260506082202 | 67 | 179 | 0.9 | 2.6 | 0.00 | 0.00 | 0.00 | 58 | 1005.2 |
| 20260506081702 | 67 | 199 | 0.9 | 7.8 | 0.00 | 0.00 | 0.00 | 58 | 1005.0 |
| 20260506081202 | 67 | 195 | 1.7 | 5.2 | 0.00 | 0.00 | 0.00 | 57 | 1005.2 |
| 20260506080702 | 67 | 284 | 1.7 | 5.2 | 0.00 | 0.00 | 0.00 | 57 | 1005.2 |
| 20260506080202 | 67 | 178 | 0.9 | 4.3 | 0.00 | 0.00 | 0.00 | 57 | 1005.2 |
| 20260506073202 | 67 | 179 | 1.7 | 6.1 | 0.00 | 0.00 | 0.00 | 55 | 1005.2 |
| 20260506072702 | 67 | 186 | 1.7 | 4.3 | 0.00 | 0.00 | 0.00 | 55 | 1005.2 |
| 20260506071702 | 67 | 231 | 0.9 | 4.3 | 0.00 | 0.00 | 0.00 | 54 | 1005.4 |
| 20260506071244 | 67 | 198 | 0.9 | 6.1 | 0.00 | 0.00 | 0.00 | 55 | 1005.5 |
| 20260506070702 | 67 | 192 | 0.9 | 3.5 | 0.00 | 0.00 | 0.00 | 54 | 1005.4 |
| 20260506070202 | 67 | 156 | 1.7 | 5.2 | 0.00 | 0.00 | 0.00 | 54 | 1005.4 |
| 20260506062202 | 68 | 227 | 1.7 | 4.3 | 0.00 | 0.00 | 0.00 | 51 | 1005.9 |
| 20260506061744 | 68 | 212 | 1.7 | 6.1 | 0.00 | 0.00 | 0.00 | 51 | 1006.0 |
| 20260506061202 | 68 | 188 | 1.7 | 8.7 | 0.00 | 0.00 | 0.00 | 52 | 1006.1 |
| 20260506060702 | 68 | 217 | 0.9 | 6.1 | 0.00 | 0.00 | 0.00 | 51 | 1006.1 |
| 20260506060202 | 68 | 200 | 1.7 | 3.5 | 0.00 | 0.00 | 0.00 | 50 | 1006.1 |
| 20260506051202 | 68 | 177 | 1.7 | 7.0 | 0.00 | 0.00 | 0.00 | 49 | 1006.5 |
| 20260506050702 | 68 | 184 | 0.9 | 7.0 | 0.00 | 0.00 | 0.00 | 49 | 1006.5 |
| 20260506050202 | 68 | 155 | 0.9 | 4.3 | 0.00 | 0.00 | 0.00 | 49 | 1006.6 |
| 20260506044702 | 68 | 179 | 1.7 | 6.1 | 0.00 | 0.00 | 0.00 | 48 | 1006.5 |
| 20260506044202 | 68 | 165 | 1.7 | 9.6 | 0.00 | 0.00 | 0.00 | 48 | 1006.5 |
| 20260506043702 | 68 | 196 | 1.7 | 9.6 | 0.00 | 0.00 | 0.00 | 48 | 1006.5 |
| 20260506043203 | 68 | 207 | 1.7 | 5.2 | 0.00 | 0.00 | 0.00 | 49 | 1006.5 |
| 20260506042744 | 68 | 167 | 1.7 | 13.9 | 0.00 | 0.00 | 0.00 | 48 | 1006.4 |
| 20260506042202 | 68 | 178 | 0.9 | 8.7 | 0.00 | 0.00 | 0.00 | 50 | 1006.4 |
| 20260506041702 | 68 | 192 | 0.9 | 8.7 | 0.00 | 0.00 | 0.00 | 50 | 1006.4 |
| 20260506041202 | 68 | 169 | 0.9 | 8.7 | 0.00 | 0.00 | 0.00 | 50 | 1006.5 |
| 20260506040703 | 68 | 194 | 0.9 | 3.5 | 0.00 | 0.00 | 0.00 | 50 | 1006.6 |
| 20260506040202 | 68 | 195 | 0.9 | 4.3 | 0.00 | 0.00 | 0.00 | 50 | 1006.6 |
| 20260506035702 | 68 | 175 | 0.9 | 5.2 | 0.00 | 0.00 | 0.00 | 50 | 1006.6 |
| 20260506035202 | 68 | 160 | 0.9 | 4.3 | 0.00 | 0.00 | 0.00 | 51 | 1006.7 |
| 20260506034702 | 68 | 162 | 0.9 | 3.5 | 0.00 | 0.00 | 0.00 | 51 | 1006.6 |
| 20260506034202 | 68 | 179 | 0.9 | 4.3 | 0.00 | 0.00 | 0.00 | 52 | 1006.5 |
| 20260506033744 | 68 | 213 | 0.9 | 2.6 | 0.00 | 0.00 | 0.00 | 51 | 1006.6 |
| 20260506033202 | 68 | 200 | 0.9 | 4.3 | 0.00 | 0.00 | 0.00 | 51 | 1006.6 |
| 20260506032745 | 68 | 225 | 0.9 | 5.2 | 0.00 | 0.00 | 0.00 | 51 | 1006.7 |
| 20260506032202 | 68 | 213 | 0.9 | 5.2 | 0.00 | 0.00 | 0.00 | 52 | 1006.7 |
| 20260506031702 | 68 | 228 | 0.9 | 4.3 | 0.00 | 0.00 | 0.00 | 52 | 1006.6 |
| 20260506031202 | 68 | 200 | 0.9 | 6.1 | 0.00 | 0.00 | 0.00 | 51 | 1006.7 |
| 20260506030702 | 68 | 214 | 0.9 | 7.8 | 0.00 | 0.00 | 0.00 | 52 | 1006.6 |
| 20260506030202 | 68 | 193 | 0.9 | 3.5 | 0.00 | 0.00 | 0.00 | 51 | 1006.6 |
| 20260506025702 | 68 | 243 | 0.9 | 4.3 | 0.00 | 0.00 | 0.00 | 52 | 1006.6 |
| 20260506025202 | 67 | 220 | 0.9 | 4.3 | 0.00 | 0.00 | 0.00 | 52 | 1006.7 |
| 20260506024703 | 67 | 225 | 0.9 | 3.5 | 0.00 | 0.00 | 0.00 | 52 | 1006.6 |
| 20260506024202 | 67 | 244 | 0.9 | 4.3 | 0.00 | 0.00 | 0.00 | 53 | 1006.6 |
| 20260506023702 | 67 | 151 | 0.9 | 3.5 | 0.00 | 0.00 | 0.00 | 54 | 1006.6 |
| 20260506023202 | 67 | 227 | 0.9 | 5.2 | 0.00 | 0.00 | 0.00 | 54 | 1006.7 |
| 20260506022745 | 67 | 250 | 0.9 | 10.4 | 0.00 | 0.00 | 0.00 | 54 | 1006.7 |
| 20260506022203 | 67 | 230 | 0.0 | 5.2 | 0.00 | 0.00 | 0.00 | 55 | 1006.8 |
| 20260506021702 | 67 | 227 | 0.9 | 2.6 | 0.00 | 0.00 | 0.00 | 56 | 1006.8 |
| 20260506021202 | 67 | 230 | 0.9 | 6.1 | 0.00 | 0.00 | 0.00 | 56 | 1006.8 |
| 20260506020744 | 67 | 244 | 0.0 | 3.5 | 0.00 | 0.00 | 0.00 | 57 | 1006.8 |
| 20260506020203 | 67 | 251 | 0.0 | 0.9 | 0.00 | 0.00 | 0.00 | 60 | 1006.8 |
| 20260506015703 | 67 | 252 | 0.0 | 1.7 | 0.00 | 0.00 | 0.00 | 61 | 1006.8 |
| 20260506015244 | 67 | 252 | 0.0 | 0.0 | 0.00 | 0.00 | 0.00 | 61 | 1006.7 |
| 20260506014703 | 67 | 252 | 0.0 | 0.0 | 0.00 | 0.00 | 0.00 | 61 | 1006.7 |
| 20260506014245 | 67 | 252 | 0.0 | 0.0 | 0.00 | 0.00 | 0.00 | 61 | 1006.8 |
| 20260506013703 | 67 | 252 | 0.0 | 0.9 | 0.00 | 0.00 | 0.00 | 61 | 1006.8 |
| 20260506013202 | 67 | 252 | 0.0 | 0.0 | 0.00 | 0.00 | 0.00 | 61 | 1006.7 |
| 20260506012702 | 67 | 252 | 0.0 | 0.9 | 0.00 | 0.00 | 0.00 | 61 | 1006.7 |
| 20260506012202 | 68 | 252 | 0.0 | 2.6 | 0.00 | 0.00 | 0.00 | 60 | 1006.6 |
| 20260506011745 | 68 | 252 | 0.0 | 1.7 | 0.00 | 0.00 | 0.00 | 60 | 1006.6 |
| 20260506011202 | 68 | 252 | 0.0 | 2.6 | 0.00 | 0.00 | 0.00 | 59 | 1006.5 |
| 20260506010702 | 68 | 252 | 0.0 | 4.3 | 0.00 | 0.00 | 0.00 | 59 | 1006.5 |
| 20260506010202 | 68 | 270 | 0.0 | 1.7 | 0.00 | 0.00 | 0.00 | 58 | 1006.4 |
| 20260506005703 | 69 | 270 | 0.0 | 1.7 | 0.00 | 0.00 | 0.00 | 58 | 1006.4 |
| 20260506005202 | 69 | 270 | 0.0 | 0.9 | 0.00 | 0.00 | 0.00 | 57 | 1006.3 |
| 20260506004702 | 69 | 270 | 0.0 | 0.0 | 0.00 | 0.00 | 0.00 | 57 | 1006.3 |
| 20260506003702 | 70 | 270 | 0.0 | 0.0 | 0.00 | 0.00 | 0.00 | 56 | 1006.2 |
| 20260506003203 | 70 | 270 | 0.0 | 1.7 | 0.00 | 0.00 | 0.00 | 55 | 1006.1 |
| 20260506002702 | 70 | 270 | 0.0 | 0.9 | 0.00 | 0.00 | 0.00 | 55 | 1006.1 |
| 20260506002245 | 70 | 270 | 0.0 | 1.7 | 0.00 | 0.00 | 0.00 | 54 | 1006.0 |
| 20260506001703 | 71 | 270 | 0.0 | 0.9 | 0.00 | 0.00 | 0.00 | 54 | 1006.0 |
| 20260506001202 | 71 | 270 | 0.0 | 2.6 | 0.00 | 0.00 | 0.00 | 53 | 1005.9 |
| 20260506000703 | 72 | 270 | 0.0 | 1.7 | 0.00 | 0.00 | 0.00 | 52 | 1005.9 |
| 20260506000204 | 72 | 279 | 0.9 | 4.3 | 0.00 | 0.00 | 0.00 | 52 | 1005.8 |
| 20260505235702 | 73 | 284 | 0.9 | 3.5 | 0.00 | 0.00 | 0.00 | 51 | 1005.7 |
| 20260505235244 | 73 | 286 | 0.9 | 2.6 | 0.00 | 0.00 | 0.00 | 50 | 1005.8 |
| 20260505234745 | 74 | 295 | 0.9 | 2.6 | 0.00 | 0.00 | 0.00 | 49 | 1005.6 |
| 20260505234202 | 74 | 295 | 1.7 | 4.3 | 0.00 | 0.00 | 0.00 | 48 | 1005.6 |
| 20260505233702 | 74 | 303 | 1.7 | 6.1 | 0.00 | 0.00 | 0.00 | 48 | 1005.6 |
| 20260505233203 | 74 | 244 | 1.7 | 9.6 | 0.00 | 0.00 | 0.00 | 47 | 1005.5 |
| 20260505232703 | 75 | 254 | 1.7 | 7.8 | 0.00 | 0.00 | 0.00 | 47 | 1005.4 |
| 20260505232202 | 75 | 236 | 1.7 | 5.2 | 0.00 | 0.00 | 0.00 | 47 | 1005.3 |
| 20260505231703 | 75 | 180 | 2.6 | 7.8 | 0.00 | 0.00 | 0.00 | 47 | 1005.1 |
| 20260505231202 | 75 | 213 | 1.7 | 12.2 | 0.00 | 0.00 | 0.00 | 48 | 1005.2 |
| 20260505230702 | 75 | 164 | 1.7 | 7.8 | 0.00 | 0.00 | 0.00 | 47 | 1005.0 |
| 20260505230203 | 75 | 184 | 0.9 | 5.2 | 0.00 | 0.00 | 0.00 | 47 | 1005.0 |
| 20260505225702 | 75 | 190 | 0.9 | 6.1 | 0.00 | 0.00 | 0.00 | 47 | 1005.0 |
| 20260505225202 | 75 | 184 | 1.7 | 6.1 | 0.00 | 0.00 | 0.00 | 47 | 1005.0 |
| 20260505224745 | 75 | 216 | 1.7 | 11.3 | 0.00 | 0.00 | 0.00 | 46 | 1005.0 |
| 20260505224202 | 75 | 166 | 1.7 | 6.1 | 0.00 | 0.00 | 0.00 | 46 | 1004.9 |
| 20260505223745 | 75 | 233 | 1.7 | 5.2 | 0.00 | 0.00 | 0.00 | 46 | 1005.0 |
| 20260505223202 | 74 | 230 | 2.6 | 9.6 | 0.00 | 0.00 | 0.00 | 47 | 1005.0 |
| 20260505222702 | 74 | 199 | 0.9 | 5.2 | 0.00 | 0.00 | 0.00 | 47 | 1005.1 |
| 20260505222245 | 75 | 156 | 0.9 | 6.1 | 0.00 | 0.00 | 0.00 | 47 | 1005.1 |
| 20260505221703 | 75 | 123 | 1.7 | 2.6 | 0.00 | 0.00 | 0.00 | 47 | 1005.1 |
| 20260505221202 | 75 | 210 | 1.7 | 7.8 | 0.00 | 0.00 | 0.00 | 47 | 1005.1 |
| 20260505220703 | 75 | 193 | 1.7 | 6.1 | 0.00 | 0.00 | 0.00 | 48 | 1005.1 |
| 20260505220202 | 75 | 160 | 1.7 | 5.2 | 0.00 | 0.00 | 0.00 | 47 | 1005.1 |
| 20260505215702 | 75 | 206 | 1.7 | 8.7 | 0.00 | 0.00 | 0.00 | 49 | 1005.0 |
| 20260505215245 | 75 | 174 | 1.7 | 7.8 | 0.00 | 0.00 | 0.00 | 46 | 1005.0 |
| 20260505214745 | 76 | 230 | 1.7 | 7.8 | 0.00 | 0.00 | 0.00 | 47 | 1004.9 |
| 20260505214245 | 76 | 200 | 1.7 | 5.2 | 0.00 | 0.00 | 0.00 | 48 | 1004.8 |
| 20260505213702 | 76 | 204 | 1.7 | 7.8 | 0.00 | 0.00 | 0.00 | 46 | 1004.8 |
| 20260505212703 | 76 | 156 | 1.7 | 5.2 | 0.00 | 0.00 | 0.00 | 46 | 1004.7 |
| 20260505212202 | 76 | 162 | 2.6 | 5.2 | 0.00 | 0.00 | 0.00 | 46 | 1004.6 |
| 20260505211703 | 76 | 199 | 2.6 | 11.3 | 0.00 | 0.00 | 0.00 | 48 | 1004.7 |
| 20260505210703 | 76 | 186 | 1.7 | 8.7 | 0.00 | 0.00 | 0.00 | 46 | 1004.7 |
| 20260505210202 | 76 | 234 | 1.7 | 11.3 | 0.00 | 0.00 | 0.00 | 45 | 1004.7 |
| 20260505205703 | 77 | 216 | 1.7 | 6.1 | 0.00 | 0.00 | 0.00 | 45 | 1004.7 |
| 20260505205203 | 77 | 208 | 1.7 | 9.6 | 0.00 | 0.00 | 0.00 | 45 | 1004.7 |
| 20260505204702 | 77 | 239 | 1.7 | 8.7 | 0.00 | 0.00 | 0.00 | 44 | 1004.7 |
| 20260505204245 | 77 | 214 | 2.6 | 7.8 | 0.00 | 0.00 | 0.00 | 45 | 1004.6 |
| 20260505203745 | 77 | 191 | 2.6 | 9.6 | 0.00 | 0.00 | 0.00 | 45 | 1004.8 |
| 20260505201303 | 78 | 212 | 4.3 | 16.5 | 0.00 | 0.00 | 0.00 | 41 | 1004.5 |
| 20260505200803 | 78 | 208 | 3.5 | 17.4 | 0.00 | 0.00 | 0.00 | 43 | 1004.7 |
| 20260505200302 | 79 | 161 | 3.5 | 9.6 | 0.00 | 0.00 | 0.00 | 41 | 1004.8 |
| 20260505195845 | 79 | 187 | 3.5 | 13.9 | 0.00 | 0.00 | 0.00 | 41 | 1004.7 |
| 20260505194803 | 81 | 173 | 2.6 | 7.0 | 0.00 | 0.00 | 0.00 | 41 | 1004.8 |
| 20260505194303 | 81 | 211 | 3.5 | 11.3 | 0.00 | 0.00 | 0.00 | 42 | 1004.8 |
| 20260505193845 | 81 | 216 | 3.5 | 8.7 | 0.00 | 0.00 | 0.00 | 42 | 1004.9 |
| 20260505193302 | 80 | 226 | 3.5 | 13.9 | 0.00 | 0.00 | 0.00 | 41 | 1005.1 |
| 20260505192803 | 80 | 201 | 4.3 | 11.3 | 0.00 | 0.00 | 0.00 | 42 | 1004.9 |
| 20260505192305 | 81 | 219 | 5.2 | 13.9 | 0.00 | 0.00 | 0.00 | 41 | 1005.0 |
| 20260505191803 | 81 | 226 | 4.3 | 23.5 | 0.00 | 0.00 | 0.00 | 42 | 1004.8 |
| 20260505191303 | 81 | 190 | 4.3 | 12.2 | 0.00 | 0.00 | 0.00 | 42 | 1004.9 |
| 20260505190802 | 80 | 197 | 3.5 | 11.3 | 0.00 | 0.00 | 0.00 | 45 | 1004.8 |
| 20260505190303 | 80 | 183 | 3.5 | 21.7 | 0.00 | 0.00 | 0.00 | 41 | 1005.0 |
| 20260505185803 | 80 | 194 | 1.7 | 7.8 | 0.00 | 0.00 | 0.00 | 44 | 1005.2 |
| 20260505184803 | 79 | 198 | 1.7 | 11.3 | 0.00 | 0.00 | 0.00 | 44 | 1005.4 |
| 20260505184303 | 79 | 202 | 2.6 | 13.0 | 0.00 | 0.00 | 0.00 | 46 | 1005.4 |
| 20260505183803 | 79 | 223 | 3.5 | 10.4 | 0.00 | 0.00 | 0.00 | 47 | 1005.8 |
| 20260505183303 | 78 | 177 | 2.6 | 10.4 | 0.00 | 0.00 | 0.00 | 47 | 1005.8 |
| 20260505182803 | 78 | 228 | 3.5 | 11.3 | 0.00 | 0.00 | 0.00 | 47 | 1006.0 |
| 20260505182305 | 79 | 223 | 3.5 | 13.0 | 0.00 | 0.00 | 0.00 | 46 | 1006.1 |
| 20260505181803 | 78 | 174 | 2.6 | 7.8 | 0.00 | 0.00 | 0.00 | 49 | 1006.2 |
| 20260505181303 | 77 | 223 | 2.6 | 13.0 | 0.00 | 0.00 | 0.00 | 49 | 1006.3 |
| 20260505180845 | 77 | 192 | 3.5 | 11.3 | 0.00 | 0.00 | 0.00 | 51 | 1006.3 |
| 20260505180302 | 77 | 195 | 1.7 | 12.2 | 0.00 | 0.00 | 0.00 | 49 | 1006.4 |
| 20260505175305 | 78 | 273 | 3.5 | 10.4 | 0.00 | 0.00 | 0.00 | 48 | 1006.3 |
| 20260505174802 | 78 | 226 | 3.5 | 8.7 | 0.00 | 0.00 | 0.00 | 47 | 1006.5 |
| 20260505174345 | 79 | 206 | 3.5 | 12.2 | 0.00 | 0.00 | 0.00 | 47 | 1006.5 |
| 20260505173803 | 79 | 258 | 2.6 | 8.7 | 0.00 | 0.00 | 0.00 | 47 | 1006.4 |
| 20260505173303 | 80 | 223 | 2.6 | 8.7 | 0.00 | 0.00 | 0.00 | 47 | 1006.3 |
| 20260505172845 | 80 | 215 | 2.6 | 12.2 | 0.00 | 0.00 | 0.00 | 47 | 1006.3 |
| 20260505172305 | 79 | 187 | 3.5 | 10.4 | 0.00 | 0.00 | 0.00 | 46 | 1006.2 |
| 20260505171803 | 79 | 239 | 2.6 | 10.4 | 0.00 | 0.00 | 0.00 | 45 | 1006.4 |
| 20260505171303 | 79 | 239 | 2.6 | 8.7 | 0.00 | 0.00 | 0.00 | 48 | 1006.4 |
| 20260505170803 | 79 | 166 | 2.6 | 8.7 | 0.00 | 0.00 | 0.00 | 47 | 1006.5 |
| 20260505170303 | 79 | 156 | 2.6 | 10.4 | 0.00 | 0.00 | 0.00 | 48 | 1006.3 |
| 20260505165802 | 79 | 246 | 2.6 | 10.4 | 0.00 | 0.00 | 0.00 | 46 | 1006.6 |
| 20260505165306 | 79 | 174 | 1.7 | 9.6 | 0.00 | 0.00 | 0.00 | 48 | 1006.7 |
| 20260505164803 | 78 | 176 | 3.5 | 6.1 | 0.00 | 0.00 | 0.00 | 50 | 1006.8 |
| 20260505164303 | 78 | 221 | 3.5 | 11.3 | 0.00 | 0.00 | 0.00 | 51 | 1006.9 |
| 20260505163845 | 78 | 201 | 3.5 | 12.2 | 0.00 | 0.00 | 0.00 | 48 | 1006.9 |
| 20260505162845 | 78 | 225 | 2.6 | 13.0 | 0.00 | 0.00 | 0.00 | 49 | 1007.2 |
| 20260505162345 | 78 | 210 | 2.6 | 14.8 | 0.00 | 0.00 | 0.00 | 49 | 1007.2 |
| 20260505161804 | 78 | 211 | 2.6 | 11.3 | 0.00 | 0.00 | 0.00 | 50 | 1007.3 |
| 20260505161303 | 78 | 239 | 3.5 | 9.6 | 0.00 | 0.00 | 0.00 | 52 | 1007.3 |
| 20260505160803 | 78 | 239 | 3.5 | 9.6 | 0.00 | 0.00 | 0.00 | 49 | 1007.2 |
| 20260505160345 | 78 | 235 | 3.5 | 9.6 | 0.00 | 0.00 | 0.00 | 50 | 1007.4 |
| 20260505153303 | 77 | 203 | 3.5 | 8.7 | 0.00 | 0.00 | 0.00 | 52 | 1007.6 |
| 20260505152803 | 77 | 238 | 3.5 | 11.3 | 0.00 | 0.00 | 0.00 | 51 | 1007.7 |
| 20260505151803 | 77 | 243 | 2.6 | 9.6 | 0.00 | 0.00 | 0.00 | 51 | 1007.7 |
| 20260505151303 | 76 | 181 | 1.7 | 10.4 | 0.00 | 0.00 | 0.00 | 52 | 1007.7 |
| 20260505150845 | 76 | 281 | 1.7 | 6.1 | 0.00 | 0.00 | 0.00 | 52 | 1007.7 |
| 20260505150302 | 76 | 213 | 1.7 | 10.4 | 0.00 | 0.00 | 0.00 | 51 | 1007.6 |
| 20260505140303 | 74 | 246 | 1.7 | 11.3 | 0.00 | 0.00 | 0.00 | 55 | 1008.0 |
| 20260505130303 | 69 | 210 | 1.7 | 7.8 | 0.00 | 0.00 | 0.00 | 60 | 1008.4 |
| 20260505124803 | 68 | 189 | 1.7 | 8.7 | 0.00 | 0.00 | 0.00 | 61 | 1008.4 |
| 20260505124303 | 68 | 215 | 1.7 | 9.6 | 0.00 | 0.00 | 0.00 | 63 | 1008.3 |
| 20260505123803 | 67 | 192 | 1.7 | 8.7 | 0.00 | 0.00 | 0.00 | 65 | 1008.4 |
| 20260505123303 | 67 | 198 | 1.7 | 9.6 | 0.00 | 0.00 | 0.00 | 66 | 1008.4 |
| 20260505122845 | 66 | 188 | 0.9 | 8.7 | 0.00 | 0.00 | 0.00 | 67 | 1008.4 |
| 20260505122305 | 66 | 199 | 0.9 | 10.4 | 0.00 | 0.00 | 0.00 | 67 | 1008.4 |
| 20260505121803 | 65 | 193 | 0.9 | 5.2 | 0.00 | 0.00 | 0.00 | 69 | 1008.4 |
| 20260505121303 | 65 | 182 | 0.9 | 5.2 | 0.00 | 0.00 | 0.00 | 68 | 1008.3 |
| 20260505120845 | 64 | 153 | 0.9 | 5.2 | 0.00 | 0.00 | 0.00 | 68 | 1008.0 |
| 20260505120303 | 64 | 170 | 0.9 | 6.1 | 0.00 | 0.00 | 0.00 | 67 | 1008.0 |
| 20260505115845 | 64 | 204 | 0.9 | 3.5 | 0.00 | 0.00 | 0.00 | 69 | 1008.2 |
| 20260505115345 | 63 | 175 | 0.9 | 7.0 | 0.00 | 0.00 | 0.00 | 69 | 1008.2 |
| 20260505114803 | 63 | 228 | 0.9 | 2.6 | 0.00 | 0.00 | 0.00 | 70 | 1008.3 |
| 20260505114303 | 63 | 230 | 0.9 | 1.7 | 0.00 | 0.00 | 0.00 | 70 | 1008.3 |
| 20260505113803 | 63 | 216 | 1.7 | 7.8 | 0.00 | 0.00 | 0.00 | 69 | 1008.2 |
| 20260505113345 | 63 | 220 | 0.9 | 6.1 | 0.00 | 0.00 | 0.00 | 70 | 1008.2 |
| 20260505112803 | 62 | 204 | 1.7 | 6.1 | 0.00 | 0.00 | 0.00 | 72 | 1008.2 |
| 20260505112305 | 62 | 200 | 1.7 | 8.7 | 0.00 | 0.00 | 0.00 | 72 | 1008.1 |
| 20260505111803 | 61 | 194 | 0.9 | 5.2 | 0.00 | 0.00 | 0.00 | 72 | 1008.1 |
| 20260505111345 | 61 | 174 | 0.9 | 4.3 | 0.00 | 0.00 | 0.00 | 73 | 1007.9 |
| 20260505110845 | 61 | 205 | 0.9 | 3.5 | 0.00 | 0.00 | 0.00 | 73 | 1008.0 |
| 20260505110303 | 61 | 168 | 1.7 | 7.8 | 0.00 | 0.00 | 0.00 | 73 | 1007.8 |
| 20260505101803 | 59 | 176 | 0.9 | 2.6 | 0.00 | 0.00 | 0.00 | 74 | 1007.5 |
| 20260505100804 | 59 | 196 | 0.9 | 6.1 | 0.00 | 0.00 | 0.00 | 73 | 1007.5 |
| 20260505100345 | 59 | 174 | 0.9 | 4.3 | 0.00 | 0.00 | 0.00 | 74 | 1007.6 |
| 20260505095845 | 59 | 214 | 1.7 | 5.2 | 0.00 | 0.00 | 0.00 | 74 | 1007.5 |
| 20260505095304 | 59 | 199 | 1.7 | 8.7 | 0.00 | 0.00 | 0.00 | 74 | 1007.4 |
| 20260505094803 | 59 | 158 | 0.9 | 4.3 | 0.00 | 0.00 | 0.00 | 74 | 1007.5 |
| 20260505094303 | 59 | 220 | 1.7 | 7.8 | 0.00 | 0.00 | 0.00 | 74 | 1007.4 |
| 20260505093803 | 59 | 186 | 1.7 | 4.3 | 0.00 | 0.00 | 0.00 | 74 | 1007.3 |
| 20260505093345 | 59 | 183 | 1.7 | 5.2 | 0.00 | 0.00 | 0.00 | 74 | 1007.3 |
| 20260505092803 | 59 | 178 | 1.7 | 3.5 | 0.00 | 0.00 | 0.00 | 74 | 1007.2 |